• In Uzbekistan
  • List of Countries
  • For 7 days
  • Water Temperature
  • Satellite Maps
  • Weather Map
  • Weather Widgets
  • user-avatar
    Login

    Hourly Weather Salzburg

    Today, 2 December, Friday

    Time Temperature Precipitation Wind Pressure Humidity
    00:00 -7°C° 0 mm 2 mps 623 mmHg 79%
    01:00 -8°C° 0 mm 3 mps 623 mmHg 81%
    02:00 -8°C° 0 mm 3 mps 623 mmHg 82%
    03:00 -8°C° 0 mm 3 mps 623 mmHg 83%
    04:00 -8°C° 0 mm 3 mps 622 mmHg 84%
    05:00 -8°C° 0 mm 3 mps 622 mmHg 85%
    06:00 -8°C° 0 mm 3 mps 622 mmHg 86%
    07:00 -9°C° 0 mm 4 mps 622 mmHg 85%
    08:00 -8°C° 0 mm 4 mps 622 mmHg 83%
    09:00 -7°C° 0 mm 3 mps 623 mmHg 81%
    10:00 -6°C° 0 mm 3 mps 623 mmHg 79%
    11:00 -5°C° 0.1 mm 3 mps 623 mmHg 79%
    12:00 -5°C° 0.1 mm 3 mps 623 mmHg 79%
    13:00 -3°C° 0 mm 2 mps 624 mmHg 77%
    14:00 -4°C° 0.2 mm 2 mps 624 mmHg 82%
    15:00 -4°C° 0.2 mm 2 mps 624 mmHg 87%
    16:00 -5°C° 0.2 mm 2 mps 624 mmHg 91%
    17:00 -5°C° 0.2 mm 2 mps 624 mmHg 93%
    18:00 -6°C° 0.2 mm 2 mps 624 mmHg 94%
    19:00 -4°C° 0.2 mm 1 mps 624 mmHg 95%
    20:00 -4°C° 0.1 mm 1 mps 624 mmHg 96%
    21:00 -6°C° 0.1 mm 1 mps 624 mmHg 96%
    22:00 -6°C° 0.1 mm 1 mps 624 mmHg 97%
    23:00 -6°C° 0 mm 1 mps 624 mmHg 97%

    Tomorrow, 3 December, Saturday

    Time Temperature Precipitation Wind Pressure Humidity
    00:00 -7°C° 0 mm 1 mps 624 mmHg 97%
    01:00 -7°C° 0 mm 0 mps 624 mmHg 98%
    02:00 -8°C° 0 mm 0 mps 623 mmHg 98%
    03:00 -8°C° 0 mm 0 mps 623 mmHg 98%
    04:00 -9°C° 0 mm 0 mps 623 mmHg 98%
    05:00 -9°C° 0 mm 0 mps 623 mmHg 98%
    06:00 -10°C° 0 mm 0 mps 623 mmHg 98%
    07:00 -10°C° 0 mm 0 mps 623 mmHg 97%
    08:00 -8°C° 0 mm 1 mps 624 mmHg 93%
    09:00 -6°C° 0 mm 1 mps 625 mmHg 89%
    10:00 -3°C° 0 mm 1 mps 626 mmHg 85%
    11:00 -2°C° 0 mm 1 mps 626 mmHg 83%
    12:00 -2°C° 0 mm 1 mps 626 mmHg 82%
    13:00 -1°C° 0 mm 1 mps 626 mmHg 80%
    14:00 -3°C° 0 mm 1 mps 626 mmHg 85%
    15:00 -4°C° 0 mm 1 mps 625 mmHg 90%
    16:00 -7°C° 0 mm 1 mps 625 mmHg 95%
    17:00 -7°C° 0 mm 1 mps 625 mmHg 95%
    18:00 -8°C° 0 mm 1 mps 625 mmHg 95%
    19:00 -9°C° 0 mm 1 mps 625 mmHg 95%
    20:00 -8°C° 0 mm 1 mps 625 mmHg 94%
    21:00 -8°C° 0 mm 1 mps 626 mmHg 93%
    22:00 -8°C° 0 mm 1 mps 626 mmHg 92%
    23:00 -8°C° 0 mm 1 mps 626 mmHg 92%

    Day after tomorrow, 4 December, Sunday

    Time Temperature Precipitation Wind Pressure Humidity
    00:00 -9°C° 0 mm 2 mps 626 mmHg 91%
    01:00 -9°C° 0 mm 2 mps 626 mmHg 90%
    02:00 -9°C° 0 mm 2 mps 626 mmHg 90%
    03:00 -9°C° 0 mm 2 mps 626 mmHg 90%
    04:00 -9°C° 0 mm 2 mps 626 mmHg 89%
    05:00 -9°C° 0 mm 1 mps 626 mmHg 89%
    06:00 -9°C° 0 mm 1 mps 626 mmHg 89%
    07:00 -9°C° 0 mm 1 mps 626 mmHg 89%
    08:00 -7°C° 0 mm 1 mps 627 mmHg 84%
    09:00 -4°C° 0 mm 1 mps 628 mmHg 80%
    10:00 -3°C° 0 mm 1 mps 628 mmHg 76%
    11:00 -2°C° 0 mm 1 mps 629 mmHg 76%
    12:00 -1°C° 0 mm 1 mps 629 mmHg 75%
    13:00 0°C° 0 mm 1 mps 629 mmHg 75%
    14:00 -2°C° 0 mm 1 mps 628 mmHg 81%
    15:00 -4°C° 0 mm 1 mps 627 mmHg 87%
    16:00 -7°C° 0 mm 1 mps 626 mmHg 93%
    17:00 -7°C° 0 mm 1 mps 627 mmHg 93%
    18:00 -8°C° 0 mm 1 mps 627 mmHg 92%
    19:00 -8°C° 0 mm 1 mps 627 mmHg 92%
    20:00 -8°C° 0 mm 1 mps 627 mmHg 90%
    21:00 -7°C° 0 mm 1 mps 627 mmHg 88%
    22:00 -8°C° 0 mm 2 mps 628 mmHg 87%
    23:00 -8°C° 0 mm 2 mps 628 mmHg 86%

    5 December, Monday

    Time Temperature Precipitation Wind Pressure Humidity
    00:00 -8°C° 0 mm 2 mps 628 mmHg 86%
    01:00 -8°C° 0 mm 2 mps 628 mmHg 86%
    02:00 -8°C° 0 mm 2 mps 628 mmHg 86%
    03:00 -7°C° 0 mm 1 mps 627 mmHg 87%
    04:00 -8°C° 0 mm 1 mps 627 mmHg 87%
    05:00 -8°C° 0 mm 1 mps 627 mmHg 88%
    06:00 -8°C° 0 mm 1 mps 627 mmHg 88%
    07:00 -8°C° 0 mm 1 mps 627 mmHg 88%
    08:00 -6°C° 0 mm 1 mps 628 mmHg 83%
    09:00 -3°C° 0 mm 1 mps 629 mmHg 78%
    10:00 -1°C° 0 mm 1 mps 630 mmHg 73%
    11:00 0°C° 0 mm 1 mps 630 mmHg 73%
    12:00 0°C° 0 mm 0 mps 630 mmHg 72%
    13:00 0°C° 0 mm 0 mps 630 mmHg 72%
    14:00 -2°C° 0 mm 0 mps 628 mmHg 78%
    15:00 -5°C° 0 mm 0 mps 627 mmHg 85%
    16:00 -8°C° 0 mm 0 mps 626 mmHg 92%
    17:00 -8°C° 0 mm 0 mps 626 mmHg 91%
    18:00 -8°C° 0 mm 0 mps 626 mmHg 91%
    19:00 -9°C° 0 mm 1 mps 626 mmHg 90%
    20:00 -8°C° 0 mm 1 mps 626 mmHg 88%
    21:00 -8°C° 0 mm 1 mps 626 mmHg 85%
    22:00 -8°C° 0 mm 1 mps 627 mmHg 83%
    23:00 -8°C° 0 mm 1 mps 627 mmHg 80%

    6 December, Tuesday

    Time Temperature Precipitation Wind Pressure Humidity
    00:00 -8°C° 0 mm 1 mps 627 mmHg 77%
    01:00 -8°C° 0 mm 1 mps 627 mmHg 73%
    02:00 -8°C° 0 mm 1 mps 627 mmHg 72%
    03:00 -8°C° 0 mm 1 mps 627 mmHg 71%
    04:00 -8°C° 0 mm 1 mps 627 mmHg 70%
    05:00 -8°C° 0 mm 1 mps 627 mmHg 70%
    06:00 -8°C° 0 mm 1 mps 627 mmHg 71%
    07:00 -8°C° 0 mm 1 mps 627 mmHg 71%
    08:00 -6°C° 0 mm 1 mps 628 mmHg 67%
    09:00 -3°C° 0 mm 1 mps 629 mmHg 64%
    10:00 -1°C° 0 mm 1 mps 630 mmHg 60%
    11:00 0°C° 0 mm 1 mps 630 mmHg 61%
    12:00 0°C° 0 mm 1 mps 630 mmHg 62%
    13:00 +1°C° 0 mm 1 mps 630 mmHg 63%
    14:00 -1°C° 0 mm 1 mps 629 mmHg 67%
    15:00 -3°C° 0 mm 1 mps 628 mmHg 72%
    16:00 -6°C° 0 mm 1 mps 627 mmHg 77%
    17:00 -6°C° 0 mm 1 mps 628 mmHg 76%
    18:00 -6°C° 0 mm 1 mps 628 mmHg 75%
    19:00 -7°C° 0 mm 1 mps 628 mmHg 74%
    20:00 -7°C° 0 mm 1 mps 628 mmHg 74%
    21:00 -6°C° 0 mm 1 mps 628 mmHg 73%
    22:00 -6°C° 0 mm 1 mps 628 mmHg 72%
    23:00 -6°C° 0 mm 1 mps 629 mmHg 73%

    7 December, Wednesday

    Time Temperature Precipitation Wind Pressure Humidity
    00:00 -6°C° 0 mm 1 mps 629 mmHg 74%
    01:00 -6°C° 0 mm 1 mps 629 mmHg 75%
    02:00 -6°C° 0 mm 1 mps 629 mmHg 77%
    03:00 -6°C° 0 mm 1 mps 629 mmHg 79%
    04:00 -6°C° 0 mm 1 mps 629 mmHg 82%
    05:00 -6°C° 0 mm 1 mps 629 mmHg 83%
    06:00 -6°C° 0 mm 1 mps 630 mmHg 83%
    07:00 -6°C° 0 mm 1 mps 630 mmHg 84%
    08:00 -4°C° 0 mm 1 mps 631 mmHg 81%
    09:00 -2°C° 0 mm 1 mps 632 mmHg 78%
    10:00 -2°C° 0 mm 0 mps 633 mmHg 75%
    11:00 -1°C° 0 mm 1 mps 633 mmHg 75%
    12:00 0°C° 0 mm 1 mps 633 mmHg 75%
    13:00 0°C° 0 mm 1 mps 633 mmHg 75%
    14:00 -2°C° 0 mm 1 mps 632 mmHg 82%
    15:00 -4°C° 0 mm 1 mps 632 mmHg 88%
    16:00 -6°C° 0 mm 1 mps 631 mmHg 94%
    17:00 -7°C° 0 mm 1 mps 631 mmHg 94%
    18:00 -7°C° 0 mm 1 mps 631 mmHg 94%
    19:00 -8°C° 0 mm 1 mps 631 mmHg 94%
    20:00 -8°C° 0 mm 1 mps 632 mmHg 94%
    21:00 -8°C° 0 mm 1 mps 632 mmHg 94%
    22:00 -8°C° 0 mm 1 mps 632 mmHg 93%
    23:00 -8°C° 0 mm 1 mps 632 mmHg 93%
    Show more